THOR ABLESTAR DEB, 2620

Orbit data source: Space-Track

THOR ABLESTAR DEB, 2620 is space debris in LEO originally from a launch on Thu, 05 Dec 1963 UTC launched from the Air Force Western Test Range (AFWTR). Debris objects in space refer to the collection of defunct objects orbiting the Earth. Examples of debris include non-operational satellites, rocket bodies, and fragments generated from explosions, collisions, or faulty payload assembly.

Loading next visibility...
Identifier
2620, 1963-049H
Orbit
LEO
Country
Flag of USUS
Related business
Manufacturer
Unknown
Mission
Spacecraft
Bus & Motor
Unknown
Mass
Unknown
Launch date (UTC)
1963-12-05 (63 years ago)
Launch vehicle
Unknown
Launch site
Air Force Western Test Range (AFWTR)
Object type
Payload
Rocket body
Debris
Shape & HBR
Unknown shape, 0.1 m
Radar Cross Section
Medium (>0.1 m² and <1 m²)

Expand to show TLE details & history
Last TLE update: 9 hours ago

TLE from 9 hours ago
0 THOR ABLESTAR DEB
1 02620U 63049H   26236.49063326  .00000209  00000-0  26795-3 0  9997
2 02620  89.9126  71.8964 0012789 254.4279 133.1835 13.59782605 99673
Epoch: 2026-08-24T11:46Z
TLE epoch observation values (Epoch: 2026-08-24T11:46:30.713Z)
Latitude
27.75639°
Longitude
-77.45739°
Altitude
1,046.453 km
Speed
7.328 km/s
True Right ascension
04h 47m 46s
True Declination
27° 37' 13"
Sunlit
Object was in daylight at epoch
Visualization orbit readout
Latitude
Unknown
Longitude
Unknown
Altitude
Unknown
Speed
Unknown
Apparent Right ascension
Unknown
Apparent Declination
Unknown
Sunlit
N/A
Visualization observer readout
Local Sidereal Time
12:11:06
Azimuth
Unknown
Elevation
Unknown
Doppler factor
Unknown
Orbital elements
Apogee altitude
1,042.997 km
Perigee altitude
1,024.039 km
Semi-major axis
7,411.655 km
Eccentricity
0.00128
Inclination
89.9126°
RAAN
71.8964°
Arg. of periapsis
254.4279°
True anomaly
133.29024°
Mean anomaly
133.1835°
Eccentric anomaly
133.23688°
Mean motion
3.4015 °/min
Orbital period
105.84 mins
BSTAR
0.00026795
Loading maneuver chart data...
Computing Atmospheric mass density...
Loading historical data...
Loading historical data...
Loading historical data...
Loading historical data...
Loading historical data...
Loading historical data...
Loading historical data...

Documentation

Showing up to 5 results
|